Tracking 20621 objects as of 29-Mar-2020
HD Live streaming from Space Station
objects crossing your sky now

COSMOS 2024 (ETALON 2)

Track COSMOS 2024 (ETALON 2) now!
COSMOS 2024 (ETALON 2) is classified as:


NORAD ID: 20026
Int'l Code: 1989-039C
Perigee: 19,082.7 km
Apogee: 19,175.0 km
Inclination: 65.5 °
Period: 675.4 minutes
Semi major axis: 25499 km
RCS: 1.2589 m2 (large)
Launch date: May 31, 1989
Source: Commonwealth of Independent States (former USSR) (CIS)
Launch site: TYURATAM MISSILE AND SPACE COMPLEX (TTMTR)
aabbcc
Your satellite tracking list
Your tracking list is empty




NASA's NSSDC Master Catalog

Two Line Element Set (TLE):
1 20026U 89039C   20089.09626653 -.00000046  00000-0  00000+0 0  9995
2 20026  65.4656  27.8629 0018111 221.6924 250.4960  2.13204379240076
Source of the keplerian elements: AFSPC